Location: Bakhuizen
(52.8696°N, 5.4575°E)
Time: 20:44:59
(UTC+00:00)

BREEZE-M R/B - Pass Details

Date: 11 May 2021
Orbit: 311 x 4501 km, 49.7° (Epoch: 19 June)

Event Time Altitude Azimuth Distance (km) Brightness Sun altitude
Rises 21:00:42 0° 251° (WSW) 2,124 6.1 -11.6°
Reaches altitude 10° 21:02:41 10° 242° (WSW) 1,210 4.7 -11.8°
Maximum altitude 21:04:59 38° 170° (S) 510 2.2 -12.0°
Enters shadow 21:06:27 19° 111° (ESE) 892 3.4 -12.1°
